This is the latest recevied weather packets stored in our database for station/object K4AMF. If no packets are shown the sender has not sent any weather packets the latest 10 day(s).
| Time | Temp. | Humidity | Pressure | Rain* | Wind** | Luminosity | Snow |
|---|---|---|---|---|---|---|---|
| 1777758077 | 21.11° C | 87% | 1010.2 hPa | 0 mm | - | 236 W/m² | - |
| 1777757774 | 21.11° C | 88% | 1010.4 hPa | 0 mm | - | 258 W/m² | - |
| 1777757471 | 21.11° C | 88% | 1009.7 hPa | 0 mm | - | 266 W/m² | - |
| 1777757170 | 20.56° C | 88% | 1010 hPa | 0 mm | - | 231 W/m² | - |
| 1777756868 | 20.56° C | 89% | 1010.1 hPa | 0 mm | - | 218 W/m² | - |
| 1777756563 | 20.56° C | 89% | 1009.9 hPa | 0 mm | - | 202 W/m² | - |
| 1777756260 | 20° C | 90% | 1010 hPa | 0 mm | - | 194 W/m² | - |
| 1777755957 | 20.56° C | 91% | 1010.1 hPa | 0 mm | - | 199 W/m² | - |
| 1777755654 | 20° C | 92% | 1010.1 hPa | 0 mm | - | 223 W/m² | - |
| 1777755350 | 20° C | 93% | 1010.4 hPa | 0 mm | - | 227 W/m² | - |
| 1777755048 | 20° C | 94% | 1010.3 hPa | 0 mm | - | 187 W/m² | - |
| 1777754744 | 19.44° C | 95% | 1010.2 hPa | 0 mm | - | 198 W/m² | - |
| 1777754443 | 19.44° C | 96% | 1010.4 hPa | 0 mm | - | 177 W/m² | - |
| 1777754139 | 19.44° C | 97% | 1010.2 hPa | 0 mm | - | 246 W/m² | - |
| 1777753836 | 20° C | 97% | 1010.4 hPa | 0 mm | - | 302 W/m² | - |
| 1777753532 | 19.44° C | 97% | 1010.4 hPa | 0 mm | - | 438 W/m² | - |
| 1777753231 | 19.44° C | 97% | 1010.3 hPa | 0 mm | - | 255 W/m² | - |
| 1777752926 | 19.44° C | 97% | 1010.4 hPa | 0 mm | - | 294 W/m² | - |
| 1777752623 | 19.44° C | 97% | 1010.6 hPa | 0 mm | - | 303 W/m² | - |
| 1777752319 | 19.44° C | 97% | 1010.8 hPa | 1.78 mm | - | 315 W/m² | - |
| 1777752017 | 19.44° C | 97% | 1010.7 hPa | 1.78 mm | - | 209 W/m² | - |
| 1777751714 | 19.44° C | 96% | 1010.7 hPa | 0 mm | - | 94 W/m² | - |
| 1777751410 | 19.44° C | 96% | 1011.2 hPa | 0 mm | - | 69 W/m² | - |
| 1777751107 | 20° C | 96% | 1010.8 hPa | 0 mm | - | 96 W/m² | - |
| 1777750803 | 20° C | 95% | 1010.8 hPa | 0 mm | - | 72 W/m² | - |
* Rain latest hour (hover to see other rain measurements)
** Current wind speed in m/s (hover to see current wind gust speed)